{"data":{"norad_id":46907,"intl_designator":"2020-081C","name":"KSM1-D","alt_names":[],"object_type":"PAYLOAD","status":"ACTIVE","operator":null,"country":"LUXE","launch_date":"2020-11-07","launch_site_code":"SRILR","launch_vehicle":null,"mission":null,"orbit_class":"UNKNOWN","rcs_meters":null,"size_class":null,"mass_kg":null,"dimensions":null,"purposes":[],"wikipedia_slug":null,"has_3d_model":false,"image_url":null,"decayed_at":null,"tle_current":{"epoch":"2026-09-20T04:58:54.960384Z","epoch_age_seconds":98929,"freshness":"FRESH","line1":"1 46907U 20081C   26263.20758056  .00005469  00000+0  21200-3 0  9990","line2":"2 46907  36.8948 202.6202 0003844 295.2577  64.7774 15.25901716323613","mean_motion":15.25901716,"eccentricity":0.0003844,"inclination_deg":36.8948,"raan_deg":202.6202,"arg_perigee_deg":295.2577,"mean_anomaly_deg":64.7774,"bstar":0.000212,"rev_number":32361,"period_min":94.370429294412,"perigee_km":485.43971410176,"apogee_km":490.71846102987,"semimajor_km":6866.2160875658,"source":"CELESTRAK","updated_at":"2026-09-20T09:00:14.800680Z"}}}